This is the latest recevied weather packets stored in our database for station/object IZ2MHJ-3. If no packets are shown the sender has not sent any weather packets the latest 10 day(s).
| Time | Temp. | Humidity | Pressure | Rain* | Wind** | Luminosity | Snow |
|---|---|---|---|---|---|---|---|
| 1777512588 | 12.78° C | 89% | 1023.8 hPa | - | - | - | - |
| 1777511388 | 12.22° C | 91% | 1023.8 hPa | - | - | - | - |
| 1777510188 | 12.22° C | 93% | 1023.7 hPa | - | - | - | - |
| 1777508987 | 12.78° C | 93% | 1023.7 hPa | - | - | - | - |
| 1777507787 | 12.78° C | 93% | 1023.6 hPa | - | - | - | - |
| 1777506587 | 12.78° C | 94% | 1023.3 hPa | - | - | - | - |
| 1777505386 | 12.78° C | 92% | 1023.1 hPa | - | - | - | - |
| 1777504186 | 13.33° C | 89% | 1023 hPa | - | - | - | - |
| 1777502986 | 13.33° C | 89% | 1022.8 hPa | - | - | - | - |
| 1777501786 | 13.89° C | 86% | 1022.2 hPa | - | - | - | - |
| 1777500585 | 15° C | 84% | 1021.6 hPa | - | - | - | - |
| 1777499385 | 16.11° C | 82% | 1021.3 hPa | - | - | - | - |
| 1777498185 | 16.11° C | 72% | 1021 hPa | - | - | - | - |
| 1777496984 | 16.11° C | 73% | 1020.6 hPa | - | - | - | - |
| 1777495784 | 16.11° C | 70% | 1020.2 hPa | - | - | - | - |
| 1777494584 | 16.11° C | 64% | 1020.1 hPa | - | - | - | - |
| 1777493383 | 16.67° C | 62% | 1020 hPa | - | - | - | - |
| 1777492183 | 17.22° C | 63% | 1019.9 hPa | - | - | - | - |
| 1777490983 | 17.22° C | 63% | 1019.5 hPa | - | - | - | - |
| 1777489783 | 17.22° C | 68% | 1019.1 hPa | - | - | - | - |
| 1777488582 | 17.22° C | 68% | 1018.8 hPa | - | - | - | - |
| 1777487382 | 17.22° C | 67% | 1018.5 hPa | - | - | - | - |
| 1777486182 | 17.22° C | 67% | 1018.3 hPa | - | - | - | - |
| 1777484981 | 17.78° C | 68% | 1018 hPa | - | - | - | - |
| 1777483781 | 18.33° C | 65% | 1017.8 hPa | - | - | - | - |
* Rain since midnight (hover to see other rain measurements)
** Current wind speed in m/s (hover to see current wind gust speed)